Hourly Data Report for July 23, 2016

TORONTO CITY
ONTARIO

43°40'00.000" N
79°24'00.000" W
112.50 m
6158355
71508
XTO

Download Data

Hourly Data (July 2016)
Hourly Data Report for July 23, 2016
TIME
LST
Temp Definition
°C
Dew Point Definition
°C
Rel Hum Definition
%
Precip. Amount Definition
mm

Wind Dir Definition
10's deg

Wind Spd Definition
km/h
Visibility Definition
km
Stn Press Definition
kPa
Hmdx Definition


Wind Chill Definition


Weather Definition


00:00 25.3 13.7 49 0.0 LegendMM LegendMM   99.80 28   LegendNANA
01:00 24.2 14.1 53 0.0 LegendMM LegendMM   99.81 28   LegendNANA
02:00 23.9 13.9 54 0.0 LegendMM LegendMM   99.85 27   LegendNANA
03:00 23.5 13.5 54 0.0 LegendMM LegendMM   99.87 27   LegendNANA
04:00 22.6 14.0 58 0.0 LegendMM LegendMM   99.87 26   LegendNANA
05:00 22.4 13.9 58 0.0 LegendMM LegendMM   99.89 26   LegendNANA
06:00 22.9 14.2 58 0.0 LegendMM LegendMM   99.91 26   LegendNANA
07:00 24.8 14.7 54 0.0 LegendMM LegendMM   99.95 29   LegendNANA
08:00 26.7 14.7 48 0.0 LegendMM LegendMM   99.94 30   LegendNANA
09:00 28.8 14.5 42 0.0 LegendMM LegendMM   99.98 32   LegendNANA
10:00 29.7 12.8 36 0.0 LegendMM LegendMM   100.00 32   LegendNANA
11:00 30.8 11.6 31 0.0 LegendMM LegendMM   99.98 33   LegendNANA
12:00 31.5 11.7 30 0.0 LegendMM LegendMM   99.97 34   LegendNANA
13:00 32.1 12.3 30 0.0 LegendMM LegendMM   99.96 35   LegendNANA
14:00 32.5 13.4 31 0.0 LegendMM LegendMM   99.94 36   LegendNANA
15:00 31.6 12.8 32 0.0 LegendMM LegendMM   99.95 34   LegendNANA
16:00 32.3 12.5 30 0.0 LegendMM LegendMM   99.91 35   LegendNANA
17:00 31.8 12.6 31 0.0 LegendMM LegendMM   99.93 34   LegendNANA
18:00 30.6 11.9 32 0.0 LegendMM LegendMM   99.94 33   LegendNANA
19:00 29.4 11.0 32 0.0 LegendMM LegendMM   99.98 31   LegendNANA
20:00 28.0 11.5 36 0.0 LegendMM LegendMM   100.04 30   LegendNANA
21:00 27.0 13.4 43 0.0 LegendMM LegendMM   100.09 30   LegendNANA
22:00 25.5 14.6 51 0.0 LegendMM LegendMM   100.17 29   LegendNANA
23:00 24.7 14.9 55 0.0 LegendMM LegendMM   100.18 29   LegendNANA

Notes on Data Quality.

Legend

  • E = Estimated
  • M = Missing
  • NA = Not Available*
  • [empty] = Indicates an unobserved value
Date modified: